FENGYUN 1C DEB

Satellite information

Favourite Embed

Satellite Type and Status

DEBRISIN ORBIT

Key statistics

Satellite FENGYUN 1C DEB at a glance.

Uptime

9715

Days in orbit

Revolutions

≈ 14.6

Per day

Orbit

SSO

Sun Synchronous Orbit

Inclination

99.1

Latest

Satellite identification and parameters

Extended collection of information and parameters for FENGYUN 1C DEB.

Object identification

Identified? True

Debris? True

Object name: FENGYUN 1C DEB

International designator: 1999-025XH

Object number (NORAD): 30248

Object ID (CCSDS): 30248

Country: PEOPLES REPUBLIC OF CHINA (PRC)

Current information (Y/N): Y

RCS size: SMALL

Orbital parameters

Period: 98.69 minutes

Inclination: 99.0999 deg

SMA: 7074.188 km

Apoapsis: 716.61 km

Periapsis: 675.495 km

RAAN: 169.4814 deg

Eccentricy: 0.00290598

Argument of periapsis: 154.3791 deg

Mean anomaly: 205.8853 deg

Mean motion: 14.59109462 rev/day

Mean motion (dot): 0.00040266 rev/day2

B* drag term: 0.008467698 1/REarth

Two-line elements (TLE)

Creation date: Dec. 11, 2025, 7:14 p.m.

Reference frame: TEME

Reference center: EARTH

Epoch: Dec. 11, 2025, 11:27 a.m. UTC

TLE line 0: 0 FENGYUN 1C DEB

TLE line 1: 1 30248U 99025XH 25345.47763143 .00040266 00000-0 84677-2 0 9998

TLE line 2: 2 30248 99.0999 169.4814 0029060 154.3791 205.8853 14.59109462974107

Live tracking on map

Real-time ground track for satellite FENGYUN 1C DEB.

In-orbit conjunctions

A list of the most updated potential collisions computed for object FENGYUN 1C DEB.

Target Orbit TCA Probability of collision Miss distance Type
SAC C SSO 2025-10-13 20:29:08 0.000169009 45.0 (m) PAYLOAD
CZ-6A DEB LEO 2024-12-23 03:54:10 0.000208752 367.0 (m) DEBRIS
COSMOS 1275 DEB LEO 2024-11-09 03:16:14 0.0003559256 565.0 (m) DEBRIS

Associated space launch

Chinese polar orbiting meteorological satellite

FENGYUN 1C DEB was lifted into orbit during the mission ‘Long March 4B | Feng Yun 1C’, on board a Long March 4B space rocket.

The launch took place on May 10, 1999, 1:33 a.m. from Launch Complex 7.

For more information about the launch, click the button.

Launch to space Long March 4B | Feng Yun 1C
Long March 4B | Feng Yun 1C

Agency: N/A

Status: Launch Successful

Launch date: May 10, 1999, 1:33 a.m. UTC

Rocket: Long March 4B

Launch pad: Launch Complex 7

Location: Taiyuan Satellite Launch Center, People's Republic of China

...

Latest news about this satellite

There are no fresh news available about this satellite. Check back as we update our databases every day.


Newsletter sign-up

Weekly statistics, charts and insights to help you stay on top of the space industry.